Location: Arcones
(41.1182°N, 3.7238°W)
Time: 18:50:32
(UTC+00:00)

Helios 1A Rocket - Pass Details

Date: 11 December 2025
Orbit: 433 x 443 km, 98.3° (Epoch: 15 January)

Event Time Altitude Azimuth Distance (km) Brightness Sun altitude
Exits shadow 17:47:37 11° 108° (ESE) 1,529 4.6 -11.2°
Drops below altitude 10° 17:48:01 10° 115° (ESE) 1,580 4.8 -11.3°
Enters shadow 18:56:29 -43° 12° (NNE) 9,303 9.1 -23.7°
